Location: Hochstatterhof
(48.7256°N, 10.3487°E)
Time: 22:42:21
(UTC+00:00)

Cosmos 2333 Rocket - Pass Details

Date: 26 September 2023
Orbit: 837 x 864 km, 70.8° (Epoch: 08 December)

Event Time Altitude Azimuth Distance (km) Brightness Sun altitude
Rises 02:31:05 0° 333° (NNW) 3,423 5.4 -25.9°
Reaches altitude 10° 02:33:38 10° 339° (NNW) 2,488 4.7 -25.5°
Maximum altitude 02:39:10 49° 54° (NE) 1,092 3.1 -24.7°
Drops below altitude 10° 02:44:43 10° 130° (SE) 2,490 4.9 -23.9°
Sets 02:47:15 0° 135° (SE) 3,426 5.6 -23.6°
